Year,Month,Day,Hour,Minute,Value (Times are PST for temperature in C)
2019,05,08,00,00,14.20
2019,05,08,00,01,14.20
2019,05,08,00,02,14.20
2019,05,08,00,03,14.20
2019,05,08,00,04,14.10
2019,05,08,00,05,14.10
2019,05,08,00,06,14.10
2019,05,08,00,07,14.10
2019,05,08,00,08,14.10
2019,05,08,00,09,14.10
2019,05,08,00,10,14.00
2019,05,08,00,11,14.00
2019,05,08,00,12,14.00
2019,05,08,00,13,14.00
2019,05,08,00,14,14.00
2019,05,08,00,15,14.00
2019,05,08,00,16,13.90
2019,05,08,00,17,13.90
2019,05,08,00,18,13.90
2019,05,08,00,19,13.90
2019,05,08,00,20,13.90
2019,05,08,00,21,13.90
2019,05,08,00,22,13.90
2019,05,08,00,23,13.80
2019,05,08,00,24,13.80
2019,05,08,00,25,13.80
2019,05,08,00,26,13.80
2019,05,08,00,27,13.70
2019,05,08,00,28,13.70
2019,05,08,00,29,13.70
2019,05,08,00,30,13.70
2019,05,08,00,31,13.60
2019,05,08,00,32,13.60
2019,05,08,00,33,13.60
2019,05,08,00,34,13.60
2019,05,08,00,35,13.60
2019,05,08,00,36,13.60
2019,05,08,00,37,13.60
2019,05,08,00,38,13.60
2019,05,08,00,39,13.60
2019,05,08,00,40,13.60
2019,05,08,00,41,13.60
2019,05,08,00,42,13.60
2019,05,08,00,43,13.60
2019,05,08,00,44,13.60
2019,05,08,00,45,13.60
2019,05,08,00,46,13.50
2019,05,08,00,47,13.50
2019,05,08,00,48,13.50
2019,05,08,00,49,13.50
2019,05,08,00,50,13.50
2019,05,08,00,51,13.50
2019,05,08,00,52,13.50
2019,05,08,00,53,13.50
2019,05,08,00,54,13.50
2019,05,08,00,55,13.50
2019,05,08,00,56,13.40
2019,05,08,00,57,13.40
2019,05,08,00,58,13.40
2019,05,08,00,59,13.40
2019,05,08,01,00,13.40
2019,05,08,01,01,13.40
2019,05,08,01,02,13.30
2019,05,08,01,03,13.30
2019,05,08,01,04,13.30
2019,05,08,01,05,13.30
2019,05,08,01,06,13.30
2019,05,08,01,07,13.30
2019,05,08,01,08,13.30
2019,05,08,01,09,13.30
2019,05,08,01,10,13.30
2019,05,08,01,11,13.30
2019,05,08,01,12,13.20
2019,05,08,01,13,13.20
2019,05,08,01,14,13.20
2019,05,08,01,15,13.20
2019,05,08,01,16,13.20
2019,05,08,01,17,13.20
2019,05,08,01,18,13.20
2019,05,08,01,19,13.10
2019,05,08,01,20,13.10
2019,05,08,01,21,13.10
2019,05,08,01,22,13.10
2019,05,08,01,23,13.10
2019,05,08,01,24,13.10
2019,05,08,01,25,13.00
2019,05,08,01,26,13.00
2019,05,08,01,27,13.00
2019,05,08,01,28,12.90
2019,05,08,01,29,12.90
2019,05,08,01,30,12.90
2019,05,08,01,31,12.90
2019,05,08,01,32,12.90
2019,05,08,01,33,12.90
2019,05,08,01,34,12.80
2019,05,08,01,35,12.80
2019,05,08,01,36,12.80
2019,05,08,01,37,12.80
2019,05,08,01,38,12.80
2019,05,08,01,39,12.80
2019,05,08,01,40,12.80
2019,05,08,01,41,12.80
2019,05,08,01,42,12.70
2019,05,08,01,43,12.70
2019,05,08,01,44,12.70
2019,05,08,01,45,12.70
2019,05,08,01,46,12.70
2019,05,08,01,47,12.70
2019,05,08,01,48,12.70
2019,05,08,01,49,12.70
2019,05,08,01,50,12.70
2019,05,08,01,51,12.70
2019,05,08,01,52,12.70
2019,05,08,01,53,12.70
2019,05,08,01,54,12.70
2019,05,08,01,55,12.70
2019,05,08,01,56,12.70
2019,05,08,01,57,12.70
2019,05,08,01,58,12.70
2019,05,08,01,59,12.60
2019,05,08,02,00,12.60
2019,05,08,02,01,12.60
2019,05,08,02,02,12.60
2019,05,08,02,03,12.60
2019,05,08,02,04,12.60
2019,05,08,02,05,12.60
2019,05,08,02,06,12.60
2019,05,08,02,07,12.60
2019,05,08,02,08,12.60
2019,05,08,02,09,12.60
2019,05,08,02,10,12.60
2019,05,08,02,11,12.60
2019,05,08,02,12,12.60
2019,05,08,02,13,12.60
2019,05,08,02,14,12.60
2019,05,08,02,15,12.60
2019,05,08,02,16,12.60
2019,05,08,02,17,12.60
2019,05,08,02,18,12.60
2019,05,08,02,19,12.60
2019,05,08,02,20,12.60
2019,05,08,02,21,12.60
2019,05,08,02,22,12.60
2019,05,08,02,23,12.60
2019,05,08,02,24,12.50
2019,05,08,02,25,12.50
2019,05,08,02,26,12.50
2019,05,08,02,27,12.50
2019,05,08,02,28,12.50
2019,05,08,02,29,12.50
2019,05,08,02,30,12.50
2019,05,08,02,31,12.50
2019,05,08,02,32,12.50
2019,05,08,02,33,12.50
2019,05,08,02,34,12.50
2019,05,08,02,35,12.50
2019,05,08,02,36,12.50
2019,05,08,02,37,12.50
2019,05,08,02,38,12.50
2019,05,08,02,39,12.50
2019,05,08,02,40,12.40
2019,05,08,02,41,12.40
2019,05,08,02,42,12.40
2019,05,08,02,43,12.40
2019,05,08,02,44,12.40
2019,05,08,02,45,12.40
2019,05,08,02,46,12.40
2019,05,08,02,47,12.30
2019,05,08,02,48,12.30
2019,05,08,02,49,12.30
2019,05,08,02,50,12.30
2019,05,08,02,51,12.30
2019,05,08,02,52,12.30
2019,05,08,02,53,12.20
2019,05,08,02,54,12.20
2019,05,08,02,55,12.20
2019,05,08,02,56,12.20
2019,05,08,02,57,12.20
2019,05,08,02,58,12.20
2019,05,08,02,59,12.20
2019,05,08,03,00,12.20
2019,05,08,03,01,12.20
2019,05,08,03,02,12.10
2019,05,08,03,03,12.10
2019,05,08,03,04,12.10
2019,05,08,03,05,12.10
2019,05,08,03,06,12.10
2019,05,08,03,07,12.10
2019,05,08,03,08,12.10
2019,05,08,03,09,12.10
2019,05,08,03,10,12.20
2019,05,08,03,11,12.10
2019,05,08,03,12,12.20
2019,05,08,03,13,12.20
2019,05,08,03,14,12.20
2019,05,08,03,15,12.20
2019,05,08,03,16,12.20
2019,05,08,03,17,12.20
2019,05,08,03,18,12.20
2019,05,08,03,19,12.20
2019,05,08,03,20,12.10
2019,05,08,03,21,12.10
2019,05,08,03,22,12.10
2019,05,08,03,23,12.10
2019,05,08,03,24,12.10
2019,05,08,03,25,12.10
2019,05,08,03,26,12.00
2019,05,08,03,27,12.00
2019,05,08,03,28,12.00
2019,05,08,03,29,12.00
2019,05,08,03,30,12.00
2019,05,08,03,31,12.00
2019,05,08,03,32,12.00
2019,05,08,03,33,12.00
2019,05,08,03,34,12.00
2019,05,08,03,35,11.90
2019,05,08,03,36,12.00
2019,05,08,03,37,11.90
2019,05,08,03,38,11.90
2019,05,08,03,39,11.90
2019,05,08,03,40,11.90
2019,05,08,03,41,11.90
2019,05,08,03,42,11.90
2019,05,08,03,43,11.90
2019,05,08,03,44,11.90
2019,05,08,03,45,11.90
2019,05,08,03,46,11.90
2019,05,08,03,47,11.90
2019,05,08,03,48,11.80
2019,05,08,03,49,11.80
2019,05,08,03,50,11.80
2019,05,08,03,51,11.80
2019,05,08,03,52,11.80
2019,05,08,03,53,11.80
2019,05,08,03,54,11.80
2019,05,08,03,55,11.70
2019,05,08,03,56,11.70
2019,05,08,03,57,11.70
2019,05,08,03,58,11.70
2019,05,08,03,59,11.70
2019,05,08,04,00,11.70
2019,05,08,04,01,11.70
2019,05,08,04,02,11.70
2019,05,08,04,03,11.70
2019,05,08,04,04,11.70
2019,05,08,04,05,11.70
2019,05,08,04,06,11.70
2019,05,08,04,07,11.70
2019,05,08,04,08,11.70
2019,05,08,04,09,11.70
2019,05,08,04,10,11.70
2019,05,08,04,11,11.70
2019,05,08,04,12,11.70
2019,05,08,04,13,11.70
2019,05,08,04,14,11.70
2019,05,08,04,15,11.70
2019,05,08,04,16,11.70
2019,05,08,04,17,11.70
2019,05,08,04,18,11.80
2019,05,08,04,19,11.80
2019,05,08,04,20,11.80
2019,05,08,04,21,11.80
2019,05,08,04,22,11.70
2019,05,08,04,23,11.70
2019,05,08,04,24,11.70
2019,05,08,04,25,11.70
2019,05,08,04,26,11.70
2019,05,08,04,27,11.70
2019,05,08,04,28,11.70
2019,05,08,04,29,11.60
2019,05,08,04,30,11.60
2019,05,08,04,31,11.60
2019,05,08,04,32,11.60
2019,05,08,04,33,11.60
2019,05,08,04,34,11.60
2019,05,08,04,35,11.60
2019,05,08,04,36,11.50
2019,05,08,04,37,11.50
2019,05,08,04,38,11.40
2019,05,08,04,39,11.40
2019,05,08,04,40,11.40
2019,05,08,04,41,11.40
2019,05,08,04,42,11.40
2019,05,08,04,43,11.30
2019,05,08,04,44,11.30
2019,05,08,04,45,11.30
2019,05,08,04,46,11.30
2019,05,08,04,47,11.30
2019,05,08,04,48,11.30
2019,05,08,04,49,11.30
2019,05,08,04,50,11.30
2019,05,08,04,51,11.30
2019,05,08,04,52,11.30
2019,05,08,04,53,11.30
2019,05,08,04,54,11.30
2019,05,08,04,55,11.30
2019,05,08,04,56,11.30
2019,05,08,04,57,11.30
2019,05,08,04,58,11.30
2019,05,08,04,59,11.30
2019,05,08,05,00,11.30
2019,05,08,05,01,11.30
2019,05,08,05,02,11.30
2019,05,08,05,03,11.30
2019,05,08,05,04,11.30
2019,05,08,05,05,11.30
2019,05,08,05,06,11.30
2019,05,08,05,07,11.30
2019,05,08,05,08,11.30
2019,05,08,05,09,11.30
2019,05,08,05,10,11.30
2019,05,08,05,11,11.30
2019,05,08,05,12,11.30
2019,05,08,05,13,11.30
2019,05,08,05,14,11.30
2019,05,08,05,15,11.30
2019,05,08,05,16,11.30
2019,05,08,05,17,11.20
2019,05,08,05,18,11.20
2019,05,08,05,19,11.20
2019,05,08,05,20,11.20
2019,05,08,05,21,11.20
2019,05,08,05,22,11.20
2019,05,08,05,23,11.10
2019,05,08,05,24,11.10
2019,05,08,05,25,11.10
2019,05,08,05,26,11.10
2019,05,08,05,27,11.10
2019,05,08,05,28,11.10
2019,05,08,05,29,11.10
2019,05,08,05,30,11.10
2019,05,08,05,31,11.00
2019,05,08,05,32,11.00
2019,05,08,05,33,10.90
2019,05,08,05,34,10.90
2019,05,08,05,35,10.90
2019,05,08,05,36,10.90
2019,05,08,05,37,10.80
2019,05,08,05,38,10.80
2019,05,08,05,39,10.80
2019,05,08,05,40,10.80
2019,05,08,05,41,10.90
2019,05,08,05,42,10.90
2019,05,08,05,43,10.80
2019,05,08,05,44,10.80
2019,05,08,05,45,10.80
2019,05,08,05,46,10.80
2019,05,08,05,47,10.80
2019,05,08,05,48,10.80
2019,05,08,05,49,10.80
2019,05,08,05,50,10.80
2019,05,08,05,51,10.80
2019,05,08,05,52,10.80
2019,05,08,05,53,10.80
2019,05,08,05,54,10.80
2019,05,08,05,55,10.80
2019,05,08,05,56,10.80
2019,05,08,05,57,10.80
2019,05,08,05,58,10.80
2019,05,08,05,59,10.80
2019,05,08,06,00,10.80
2019,05,08,06,01,10.70
2019,05,08,06,02,10.70
2019,05,08,06,03,10.70
2019,05,08,06,04,10.70
2019,05,08,06,05,10.70
2019,05,08,06,06,10.70
2019,05,08,06,07,10.70
2019,05,08,06,08,10.70
2019,05,08,06,09,10.70
2019,05,08,06,10,10.70
2019,05,08,06,11,10.70
2019,05,08,06,12,10.70
2019,05,08,06,13,10.70
2019,05,08,06,14,10.70
2019,05,08,06,15,10.70
2019,05,08,06,16,10.70
2019,05,08,06,17,10.70
2019,05,08,06,18,10.70
2019,05,08,06,19,10.70
2019,05,08,06,20,10.70
2019,05,08,06,21,10.70
2019,05,08,06,22,10.70
2019,05,08,06,23,10.70
2019,05,08,06,24,10.70
2019,05,08,06,25,10.70
2019,05,08,06,26,10.70
2019,05,08,06,27,10.70
2019,05,08,06,28,10.70
2019,05,08,06,29,10.70
2019,05,08,06,30,10.70
2019,05,08,06,31,10.70
2019,05,08,06,32,10.70
2019,05,08,06,33,10.70
2019,05,08,06,34,10.70
2019,05,08,06,35,10.70
2019,05,08,06,36,10.70
2019,05,08,06,37,10.70
2019,05,08,06,38,10.70
2019,05,08,06,39,10.70
2019,05,08,06,40,10.70
2019,05,08,06,41,10.70
2019,05,08,06,42,10.80
2019,05,08,06,43,10.80
2019,05,08,06,44,10.80
2019,05,08,06,45,10.90
2019,05,08,06,46,10.90
2019,05,08,06,47,10.90
2019,05,08,06,48,11.00
2019,05,08,06,49,11.00
2019,05,08,06,50,11.10
2019,05,08,06,51,11.10
2019,05,08,06,52,11.10
2019,05,08,06,53,11.20
2019,05,08,06,54,11.20
2019,05,08,06,55,11.20
2019,05,08,06,56,11.30
2019,05,08,06,57,11.30
2019,05,08,06,58,11.30
2019,05,08,06,59,11.30
2019,05,08,07,00,11.40
2019,05,08,07,01,11.40
2019,05,08,07,02,11.40
2019,05,08,07,03,11.40
2019,05,08,07,04,11.40
2019,05,08,07,05,11.50
2019,05,08,07,06,11.60
2019,05,08,07,07,11.60
2019,05,08,07,08,11.70
2019,05,08,07,09,11.70
2019,05,08,07,10,11.80
2019,05,08,07,11,11.80
2019,05,08,07,12,11.90
2019,05,08,07,13,11.90
2019,05,08,07,14,12.00
2019,05,08,07,15,12.10
2019,05,08,07,16,12.10
2019,05,08,07,17,12.10
2019,05,08,07,18,12.10
2019,05,08,07,19,12.20
2019,05,08,07,20,12.20
2019,05,08,07,21,12.20
2019,05,08,07,22,12.20
2019,05,08,07,23,12.30
2019,05,08,07,24,12.30
2019,05,08,07,25,12.30
2019,05,08,07,26,12.30
2019,05,08,07,27,12.40
2019,05,08,07,28,12.40
2019,05,08,07,29,12.40
2019,05,08,07,30,12.50
2019,05,08,07,31,12.60
2019,05,08,07,32,12.70
2019,05,08,07,33,12.70
2019,05,08,07,34,12.80
2019,05,08,07,35,12.80
2019,05,08,07,36,12.90
2019,05,08,07,37,13.10
2019,05,08,07,38,13.10
2019,05,08,07,39,13.20
2019,05,08,07,40,13.30
2019,05,08,07,41,13.40
2019,05,08,07,42,13.50
2019,05,08,07,43,13.60
2019,05,08,07,44,13.60
2019,05,08,07,45,13.70
2019,05,08,07,46,13.80
2019,05,08,07,47,13.90
2019,05,08,07,48,14.00
2019,05,08,07,49,14.10
2019,05,08,07,50,14.10
2019,05,08,07,51,14.10
2019,05,08,07,52,14.10
2019,05,08,07,53,14.10
2019,05,08,07,54,14.10
2019,05,08,07,55,14.10
2019,05,08,07,56,14.10
2019,05,08,07,57,14.10
2019,05,08,07,58,14.10
2019,05,08,07,59,14.10
2019,05,08,08,00,14.10
2019,05,08,08,01,14.10
2019,05,08,08,02,14.10
2019,05,08,08,03,14.20
2019,05,08,08,04,14.20
2019,05,08,08,05,14.20
2019,05,08,08,06,14.20
2019,05,08,08,07,14.20
2019,05,08,08,08,14.20
2019,05,08,08,09,14.20
2019,05,08,08,10,14.30
2019,05,08,08,11,14.30
2019,05,08,08,12,14.30
2019,05,08,08,13,14.30
2019,05,08,08,14,14.40
2019,05,08,08,15,14.40
2019,05,08,08,16,14.50
2019,05,08,08,17,14.60
2019,05,08,08,18,14.60
2019,05,08,08,19,14.60
2019,05,08,08,20,14.70
2019,05,08,08,21,14.70
2019,05,08,08,22,14.80
2019,05,08,08,23,14.80
2019,05,08,08,24,14.80
2019,05,08,08,25,14.80
2019,05,08,08,26,14.80
2019,05,08,08,27,14.80
2019,05,08,08,28,14.90
2019,05,08,08,29,14.90
2019,05,08,08,30,14.90
2019,05,08,08,31,14.90
2019,05,08,08,32,14.90
2019,05,08,08,33,14.90
2019,05,08,08,34,15.00
2019,05,08,08,35,15.00
2019,05,08,08,36,15.00
2019,05,08,08,37,14.90
2019,05,08,08,38,14.90
2019,05,08,08,39,14.90
2019,05,08,08,40,14.90
2019,05,08,08,41,14.90
2019,05,08,08,42,14.90
2019,05,08,08,43,14.90
2019,05,08,08,44,14.90
2019,05,08,08,45,15.00
2019,05,08,08,46,15.10
2019,05,08,08,47,15.10
2019,05,08,08,48,15.10
2019,05,08,08,49,15.20
2019,05,08,08,50,15.20
2019,05,08,08,51,15.20
2019,05,08,08,52,15.30
2019,05,08,08,53,15.30
2019,05,08,08,54,15.30
2019,05,08,08,55,15.40
2019,05,08,08,56,15.40
2019,05,08,08,57,15.40
2019,05,08,08,58,15.40
2019,05,08,08,59,15.40
2019,05,08,09,00,15.40
2019,05,08,09,01,15.50
2019,05,08,09,02,15.60
2019,05,08,09,03,15.60
2019,05,08,09,04,15.60
2019,05,08,09,05,15.60
2019,05,08,09,06,15.60
2019,05,08,09,07,15.60
2019,05,08,09,08,15.60
2019,05,08,09,09,15.70
2019,05,08,09,10,15.70
2019,05,08,09,11,15.70
2019,05,08,09,12,15.70
2019,05,08,09,13,15.80
2019,05,08,09,14,15.80
2019,05,08,09,15,15.90
2019,05,08,09,16,16.00
2019,05,08,09,17,16.10
2019,05,08,09,18,16.20
2019,05,08,09,19,16.20
2019,05,08,09,20,16.30
2019,05,08,09,21,16.30
2019,05,08,09,22,16.30
2019,05,08,09,23,16.30
2019,05,08,09,24,16.30
2019,05,08,09,25,16.30
2019,05,08,09,26,16.30
2019,05,08,09,27,16.30
2019,05,08,09,28,16.30
2019,05,08,09,29,16.30
2019,05,08,09,30,16.30
2019,05,08,09,31,16.40
2019,05,08,09,32,16.50
2019,05,08,09,33,16.60
2019,05,08,09,34,16.60
2019,05,08,09,35,16.70
2019,05,08,09,36,16.70
2019,05,08,09,37,16.80
2019,05,08,09,38,16.80
2019,05,08,09,39,16.80
2019,05,08,09,40,16.80
2019,05,08,09,41,16.80
2019,05,08,09,42,16.80
2019,05,08,09,43,16.80
2019,05,08,09,44,16.90
2019,05,08,09,45,17.00
2019,05,08,09,46,17.10
2019,05,08,09,47,17.10
2019,05,08,09,48,17.20
2019,05,08,09,49,17.30
2019,05,08,09,50,17.30
2019,05,08,09,51,17.40
2019,05,08,09,52,17.60
2019,05,08,09,53,17.60
2019,05,08,09,54,17.70
2019,05,08,09,55,17.70
2019,05,08,09,56,17.70
2019,05,08,09,57,17.70
2019,05,08,09,58,17.80
2019,05,08,09,59,17.80
2019,05,08,10,00,17.80
2019,05,08,10,01,17.80
2019,05,08,10,02,17.80
2019,05,08,10,03,17.80
2019,05,08,10,04,17.80
2019,05,08,10,05,17.80
2019,05,08,10,06,17.80
2019,05,08,10,07,17.80
2019,05,08,10,08,17.80
2019,05,08,10,09,17.80
2019,05,08,10,10,17.80
2019,05,08,10,11,17.80
2019,05,08,10,12,17.80
2019,05,08,10,13,17.80
2019,05,08,10,14,17.80
2019,05,08,10,15,17.80
2019,05,08,10,16,17.80
2019,05,08,10,17,17.80
2019,05,08,10,18,17.80
2019,05,08,10,19,17.90
2019,05,08,10,20,17.90
2019,05,08,10,21,17.90
2019,05,08,10,22,18.00
2019,05,08,10,23,18.00
2019,05,08,10,24,18.10
2019,05,08,10,25,18.10
2019,05,08,10,26,18.10
2019,05,08,10,27,18.20
2019,05,08,10,28,18.20
2019,05,08,10,29,18.20
2019,05,08,10,30,18.30
2019,05,08,10,31,18.30
2019,05,08,10,32,18.40
2019,05,08,10,33,18.40
2019,05,08,10,34,18.50
2019,05,08,10,35,18.60
2019,05,08,10,36,18.70
2019,05,08,10,37,18.80
2019,05,08,10,38,18.80
2019,05,08,10,39,18.90
2019,05,08,10,40,18.80
2019,05,08,10,41,18.80
2019,05,08,10,42,18.70
2019,05,08,10,43,18.70
2019,05,08,10,44,18.60
2019,05,08,10,45,18.60
2019,05,08,10,46,18.60
2019,05,08,10,47,18.60
2019,05,08,10,48,18.60
2019,05,08,10,49,18.60
2019,05,08,10,50,18.60
2019,05,08,10,51,18.60
2019,05,08,10,52,18.70
2019,05,08,10,53,18.70
2019,05,08,10,54,18.80
2019,05,08,10,55,18.80
2019,05,08,10,56,18.90
2019,05,08,10,57,19.00
2019,05,08,10,58,19.10
2019,05,08,10,59,19.20
2019,05,08,11,00,19.20
2019,05,08,11,01,19.20
2019,05,08,11,02,19.20
2019,05,08,11,03,19.20
2019,05,08,11,04,19.30
2019,05,08,11,05,19.30
2019,05,08,11,06,19.40
2019,05,08,11,07,19.50
2019,05,08,11,08,19.60
2019,05,08,11,09,19.60
2019,05,08,11,10,19.70
2019,05,08,11,11,19.70
2019,05,08,11,12,19.60
2019,05,08,11,13,19.60
2019,05,08,11,14,19.60
2019,05,08,11,15,19.50
2019,05,08,11,16,19.40
2019,05,08,11,17,19.40
2019,05,08,11,18,19.30
2019,05,08,11,19,19.30
2019,05,08,11,20,19.40
2019,05,08,11,21,19.50
2019,05,08,11,22,19.60
2019,05,08,11,23,19.70
2019,05,08,11,24,19.80
2019,05,08,11,25,19.90
2019,05,08,11,26,20.00
2019,05,08,11,27,20.10
2019,05,08,11,28,20.30
2019,05,08,11,29,20.40
2019,05,08,11,30,20.50
2019,05,08,11,31,20.70
2019,05,08,11,32,20.80
2019,05,08,11,33,21.00
2019,05,08,11,34,21.20
2019,05,08,11,35,21.30
2019,05,08,11,36,21.40
2019,05,08,11,37,21.60
2019,05,08,11,38,21.60
2019,05,08,11,39,21.70
2019,05,08,11,40,21.70
2019,05,08,11,41,21.70
2019,05,08,11,42,21.60
2019,05,08,11,43,21.50
2019,05,08,11,44,21.40
2019,05,08,11,45,21.40
2019,05,08,11,46,21.40
2019,05,08,11,47,21.40
2019,05,08,11,48,21.40
2019,05,08,11,49,21.40
2019,05,08,11,50,21.40
2019,05,08,11,51,21.40
2019,05,08,11,52,21.40
2019,05,08,11,53,21.40
2019,05,08,11,54,21.40
2019,05,08,11,55,21.40
2019,05,08,11,56,21.40
2019,05,08,11,57,21.30
2019,05,08,11,58,21.20
2019,05,08,11,59,21.20
2019,05,08,12,00,21.10
2019,05,08,12,01,21.10
2019,05,08,12,02,21.20
2019,05,08,12,03,21.20
2019,05,08,12,04,21.20
2019,05,08,12,05,21.20
2019,05,08,12,06,21.20
2019,05,08,12,07,21.30
2019,05,08,12,08,21.30
2019,05,08,12,09,21.40
2019,05,08,12,10,21.40
2019,05,08,12,11,21.40
2019,05,08,12,12,21.40
2019,05,08,12,13,21.40
2019,05,08,12,14,21.50
2019,05,08,12,15,21.60
2019,05,08,12,16,21.60
2019,05,08,12,17,21.70
2019,05,08,12,18,21.70
2019,05,08,12,19,21.70
2019,05,08,12,20,21.60
2019,05,08,12,21,21.70
2019,05,08,12,22,21.70
2019,05,08,12,23,21.70
2019,05,08,12,24,21.70
2019,05,08,12,25,21.70
2019,05,08,12,26,21.70
2019,05,08,12,27,21.60
2019,05,08,12,28,21.60
2019,05,08,12,29,21.50
2019,05,08,12,30,21.50
2019,05,08,12,31,21.40
2019,05,08,12,32,21.40
2019,05,08,12,33,21.50
2019,05,08,12,34,21.60
2019,05,08,12,35,21.60
2019,05,08,12,36,21.70
2019,05,08,12,37,21.80
2019,05,08,12,38,21.80
2019,05,08,12,39,21.90
2019,05,08,12,40,22.00
2019,05,08,12,41,22.10
2019,05,08,12,42,22.10
2019,05,08,12,43,22.20
2019,05,08,12,44,22.10
2019,05,08,12,45,22.10
2019,05,08,12,46,22.10
2019,05,08,12,47,22.00
2019,05,08,12,48,22.00
2019,05,08,12,49,22.10
2019,05,08,12,50,22.10
2019,05,08,12,51,22.10
2019,05,08,12,52,22.10
2019,05,08,12,53,22.20
2019,05,08,12,54,22.20
2019,05,08,12,55,22.20
2019,05,08,12,56,22.20
2019,05,08,12,57,22.30
2019,05,08,12,58,22.30
2019,05,08,12,59,22.30
2019,05,08,13,00,22.30
2019,05,08,13,01,22.30
2019,05,08,13,02,22.30
2019,05,08,13,03,22.30
2019,05,08,13,04,22.30
2019,05,08,13,05,22.30
2019,05,08,13,06,22.40
2019,05,08,13,07,22.40
2019,05,08,13,08,22.50
2019,05,08,13,09,22.50
2019,05,08,13,10,22.60
2019,05,08,13,11,22.60
2019,05,08,13,12,22.50
2019,05,08,13,13,22.40
2019,05,08,13,14,22.40
2019,05,08,13,15,22.30
2019,05,08,13,16,22.30
2019,05,08,13,17,22.40
2019,05,08,13,18,22.40
2019,05,08,13,19,22.40
2019,05,08,13,20,22.40
2019,05,08,13,21,22.40
2019,05,08,13,22,22.50
2019,05,08,13,23,22.50
2019,05,08,13,24,22.40
2019,05,08,13,25,22.40
2019,05,08,13,26,22.40
2019,05,08,13,27,22.50
2019,05,08,13,28,22.60
2019,05,08,13,29,22.70
2019,05,08,13,30,22.80
2019,05,08,13,31,22.80
2019,05,08,13,32,22.80
2019,05,08,13,33,22.90
2019,05,08,13,34,22.90
2019,05,08,13,35,23.10
2019,05,08,13,36,23.10
2019,05,08,13,37,23.10
2019,05,08,13,38,23.00
2019,05,08,13,39,23.00
2019,05,08,13,40,23.00
2019,05,08,13,41,23.00
2019,05,08,13,42,23.10
2019,05,08,13,43,23.10
2019,05,08,13,44,23.20
2019,05,08,13,45,23.30
2019,05,08,13,46,23.40
2019,05,08,13,47,23.60
2019,05,08,13,48,23.70
2019,05,08,13,49,23.80
2019,05,08,13,50,23.80
2019,05,08,13,51,23.80
2019,05,08,13,52,23.80
2019,05,08,13,53,23.80
2019,05,08,13,54,23.80
2019,05,08,13,55,23.70
2019,05,08,13,56,23.80
2019,05,08,13,57,23.80
2019,05,08,13,58,23.80
2019,05,08,13,59,23.80
2019,05,08,14,00,23.90
2019,05,08,14,01,24.00
2019,05,08,14,02,24.10
2019,05,08,14,03,24.20
2019,05,08,14,04,24.30
2019,05,08,14,05,24.30
2019,05,08,14,06,24.50
2019,05,08,14,07,24.70
2019,05,08,14,08,24.80
2019,05,08,14,09,24.80
2019,05,08,14,10,25.00
2019,05,08,14,11,25.20
2019,05,08,14,12,25.40
2019,05,08,14,13,25.40
2019,05,08,14,14,25.40
2019,05,08,14,15,25.40
2019,05,08,14,16,25.30
2019,05,08,14,17,25.30
2019,05,08,14,18,25.30
2019,05,08,14,19,25.30
2019,05,08,14,20,25.20
2019,05,08,14,21,25.10
2019,05,08,14,22,25.10
2019,05,08,14,23,25.10
2019,05,08,14,24,25.10
2019,05,08,14,25,25.10
2019,05,08,14,26,25.10
2019,05,08,14,27,25.10
2019,05,08,14,28,25.10
2019,05,08,14,29,25.20
2019,05,08,14,30,25.20
2019,05,08,14,31,25.30
2019,05,08,14,32,25.40
2019,05,08,14,33,25.40
2019,05,08,14,34,25.40
2019,05,08,14,35,25.60
2019,05,08,14,36,25.70
2019,05,08,14,37,25.70
2019,05,08,14,38,25.70
2019,05,08,14,39,25.80
2019,05,08,14,40,25.90
2019,05,08,14,41,25.90
2019,05,08,14,42,25.80
2019,05,08,14,43,25.80
2019,05,08,14,44,25.80
2019,05,08,14,45,25.70
2019,05,08,14,46,25.70
2019,05,08,14,47,25.70
2019,05,08,14,48,25.70
2019,05,08,14,49,25.80
2019,05,08,14,50,25.80
2019,05,08,14,51,25.90
2019,05,08,14,52,25.90
2019,05,08,14,53,26.00
2019,05,08,14,54,26.10
2019,05,08,14,55,26.20
2019,05,08,14,56,26.20
2019,05,08,14,57,26.10
2019,05,08,14,58,26.10
2019,05,08,14,59,26.20
2019,05,08,15,00,26.20
2019,05,08,15,01,26.30
2019,05,08,15,02,26.30
2019,05,08,15,03,26.30
2019,05,08,15,04,26.30
2019,05,08,15,05,26.30
2019,05,08,15,06,26.30
2019,05,08,15,07,26.20
2019,05,08,15,08,26.20
2019,05,08,15,09,26.20
2019,05,08,15,10,26.20
2019,05,08,15,11,26.20
2019,05,08,15,12,26.20
2019,05,08,15,13,26.20
2019,05,08,15,14,26.20
2019,05,08,15,15,26.20
2019,05,08,15,16,26.20
2019,05,08,15,17,26.10
2019,05,08,15,18,26.20
2019,05,08,15,19,26.20
2019,05,08,15,20,26.20
2019,05,08,15,21,26.20
2019,05,08,15,22,26.10
2019,05,08,15,23,26.10
2019,05,08,15,24,26.20
2019,05,08,15,25,26.30
2019,05,08,15,26,26.30
2019,05,08,15,27,26.40
2019,05,08,15,28,26.60
2019,05,08,15,29,26.70
2019,05,08,15,30,26.70
2019,05,08,15,31,26.70
2019,05,08,15,32,26.70
2019,05,08,15,33,26.80
2019,05,08,15,34,26.80
2019,05,08,15,35,26.80
2019,05,08,15,36,26.80
2019,05,08,15,37,26.80
2019,05,08,15,38,26.80
2019,05,08,15,39,26.80
2019,05,08,15,40,26.80
2019,05,08,15,41,26.90
2019,05,08,15,42,26.90
2019,05,08,15,43,26.90
2019,05,08,15,44,26.90
2019,05,08,15,45,26.80
2019,05,08,15,46,26.90
2019,05,08,15,47,26.90
2019,05,08,15,48,27.00
2019,05,08,15,49,27.10
2019,05,08,15,50,27.10
2019,05,08,15,51,27.10
2019,05,08,15,52,27.10
2019,05,08,15,53,27.10
2019,05,08,15,54,26.90
2019,05,08,15,55,26.80
2019,05,08,15,56,26.80
2019,05,08,15,57,26.80
2019,05,08,15,58,26.80
2019,05,08,15,59,26.80
2019,05,08,16,00,26.80
2019,05,08,16,01,26.90
2019,05,08,16,02,26.90
2019,05,08,16,03,26.90
2019,05,08,16,04,26.90
2019,05,08,16,05,26.90
2019,05,08,16,06,26.90
2019,05,08,16,07,26.90
2019,05,08,16,08,27.00
2019,05,08,16,09,27.00
2019,05,08,16,10,27.00
2019,05,08,16,11,27.00
2019,05,08,16,12,27.10
2019,05,08,16,13,27.20
2019,05,08,16,14,27.30
2019,05,08,16,15,27.30
2019,05,08,16,16,27.20
2019,05,08,16,17,27.10
2019,05,08,16,18,27.10
2019,05,08,16,19,27.00
2019,05,08,16,20,26.90
2019,05,08,16,21,27.00
2019,05,08,16,22,27.10
2019,05,08,16,23,27.20
2019,05,08,16,24,27.30
2019,05,08,16,25,27.30
2019,05,08,16,26,27.20
2019,05,08,16,27,27.10
2019,05,08,16,28,27.10
2019,05,08,16,29,27.00
2019,05,08,16,30,26.90
2019,05,08,16,31,26.90
2019,05,08,16,32,26.90
2019,05,08,16,33,26.90
2019,05,08,16,34,27.00
2019,05,08,16,35,27.10
2019,05,08,16,36,27.10
2019,05,08,16,37,27.10
2019,05,08,16,38,27.20
2019,05,08,16,39,27.20
2019,05,08,16,40,27.20
2019,05,08,16,41,27.20
2019,05,08,16,42,27.20
2019,05,08,16,43,27.20
2019,05,08,16,44,27.20
2019,05,08,16,45,27.20
2019,05,08,16,46,27.10
2019,05,08,16,47,26.80
2019,05,08,16,48,26.60
2019,05,08,16,49,26.40
2019,05,08,16,50,26.40
2019,05,08,16,51,26.40
2019,05,08,16,52,26.40
2019,05,08,16,53,26.50
2019,05,08,16,54,26.40
2019,05,08,16,55,26.30
2019,05,08,16,56,26.30
2019,05,08,16,57,26.30
2019,05,08,16,58,26.30
2019,05,08,16,59,26.30
2019,05,08,17,00,26.30
2019,05,08,17,01,26.30
2019,05,08,17,02,26.30
2019,05,08,17,03,26.30
2019,05,08,17,04,26.30
2019,05,08,17,05,26.40
2019,05,08,17,06,26.40
2019,05,08,17,07,26.60
2019,05,08,17,08,26.60
2019,05,08,17,09,26.60
2019,05,08,17,10,26.50
2019,05,08,17,11,26.40
2019,05,08,17,12,26.30
2019,05,08,17,13,26.30
2019,05,08,17,14,26.30
2019,05,08,17,15,26.30
2019,05,08,17,16,26.30
2019,05,08,17,17,26.40
2019,05,08,17,18,26.40
2019,05,08,17,19,26.30